Blackpool, United Kingdom

11:11 AM GMT on February 24, 2017 (GMT +0000)
Blackpool

Weather History for EGNH - September, 2013

Change the Weather History Date:

Wednesday, September 4, 2013

  Actual Average Record
Temperature  
Mean Temperature 62 °F -  
Max Temperature 71 °F 60 °F 80 °F (2005)
Min Temperature 52 °F 50 °F 41 °F (2000)
Degree Days  
Heating Degree Days 4    
Growing Degree Days 12 (Base 50)    
Moisture  
Dew Point 55 °F    
Average Humidity 73    
Maximum Humidity 100    
Minimum Humidity 46    
Precipitation  
Precipitation 0.00 in - - ()
Sea Level Pressure  
Sea Level Pressure 30.08 in    
Wind  
Wind Speed 5 mph ()    
Max Wind Speed 10 mph    
Max Gust Speed -    
Visibility 4.9 miles    
Events Fog    
Averages and records for this station are not official NWS values.
T = Trace of Precipitation, MM = Missing Value Source: Averaged Metar Reports

Daily Weather History Graph

Daily Weather History Graph

Search for Another Location

Airport or City:

Trip Planner

Search our weather history database for the weather conditions in past years. The results will help you decide how hot, cold, wet, or windy it might be!

Date:

Astronomy

Sep. 04, 2013 Rise Set
Actual Time 6:26 AM BST 7:54 PM BST
Civil Twilight 5:49 AM BST 8:31 PM BST
Nautical Twilight 5:04 AM BST 9:16 PM BST
Astronomical Twilight 4:14 AM BST 10:05 PM BST
Moon 5:22 AM BST (9/4) 7:03 PM BST (9/4)
Length of Visible Light 14h 41m
Length of Day
13h 28m
Waning Crescent, 1% of the Moon is Illuminated
Sep 4
Waning Crescent
Sep 5
New
Sep 12
First Quarter
Sep 19
Full
Sep 27
Last Quarter

Hourly Weather History & Observations

Time (BST) Temp. Dew Point Humidity Pressure Visibility Wind Dir Wind Speed Gust Speed Precip Events Conditions
3:50 AM 58 °F 57 °F 94%  in - East 4.6 mph - -  
6:20 AM 55.4 °F 53.6 °F 94% 30.18 in 0.2 mi East 6.9 mph - N/A Fog Fog
6:50 AM 56 °F 56 °F 98%  in - ESE 5.8 mph - -  
6:50 AM 55.4 °F 55.4 °F 100% 30.18 in 0.3 mi ESE 5.8 mph - N/A Fog Fog
7:20 AM 57.2 °F 55.4 °F 94% 30.18 in 0.4 mi SE 8.1 mph - N/A Fog Fog
7:50 AM 55.4 °F 55.4 °F 100% 30.18 in 0.1 mi SE 6.9 mph - N/A Fog Fog
8:20 AM 55.4 °F 55.4 °F 100% 30.15 in 1.9 mi ESE 4.6 mph - N/A   Mostly Cloudy
8:50 AM 55.4 °F 55.4 °F 100% 30.15 in 3.7 mi ESE 5.8 mph - N/A   Partly Cloudy
9:20 AM 57.2 °F 57.2 °F 100% 30.15 in 5.0 mi ESE 5.8 mph - N/A   Unknown
9:50 AM 59 °F 55 °F 82%  in - SE 6.9 mph - -  
9:50 AM 59.0 °F 57.2 °F 94% 30.15 in 5.6 mi ESE 5.8 mph - N/A   Unknown
10:20 AM 60.8 °F 57.2 °F 88% 30.15 in 5.6 mi SE 8.1 mph - N/A   Unknown
10:50 AM 62.6 °F 59.0 °F 88% 30.15 in 5.6 mi SE 6.9 mph - N/A   Unknown
11:20 AM 64.4 °F 59.0 °F 83% 30.12 in 5.6 mi SE 5.8 mph - N/A   Unknown
11:50 AM 66.2 °F 57.2 °F 73% 30.12 in - SSE 5.8 mph - N/A   Clear
12:20 PM 68.0 °F 57.2 °F 68% 30.12 in - South 5.8 mph - N/A   Clear
12:50 PM 68 °F 53 °F 48%  in - SW 5.8 mph - -  
12:50 PM 68.0 °F 53.6 °F 60% 30.09 in - SW 5.8 mph - N/A   Clear
1:20 PM 69.8 °F 55.4 °F 60% 30.09 in - SSW 4.6 mph - N/A   Clear
1:50 PM 71.6 °F 57.2 °F 60% 30.09 in 6.2 mi SW 4.6 mph - N/A   Partly Cloudy
2:20 PM 69.8 °F 55.4 °F 60% 30.06 in 6.2 mi Variable 3.5 mph - N/A   Partly Cloudy
2:50 PM 69.8 °F 55.4 °F 60% 30.06 in 6.2 mi West 4.6 mph - N/A   Partly Cloudy
3:20 PM 69.8 °F 55.4 °F 60% 30.04 in - Variable 2.3 mph - N/A   Clear
3:50 PM 70 °F 56 °F 53%  in - NW 3.5 mph - -  
3:50 PM 69.8 °F 57.2 °F 64% 30.04 in 6.2 mi Variable 2.3 mph - N/A   Partly Cloudy
4:20 PM 71.6 °F 55.4 °F 57% 30.04 in 6.2 mi NW 4.6 mph - N/A   Partly Cloudy
4:50 PM 69.8 °F 55.4 °F 60% 30.01 in 6.2 mi NW 4.6 mph - N/A   Partly Cloudy
5:20 PM 69.8 °F 55.4 °F 60% 30.01 in 6.2 mi WNW 3.5 mph - N/A   Partly Cloudy
5:50 PM 71.6 °F 53.6 °F 53% 30.01 in 6.2 mi WNW 5.8 mph - N/A   Partly Cloudy
6:20 PM 68.0 °F 46.4 °F 46% 30.01 in 6.2 mi NW 6.9 mph - N/A   Partly Cloudy
6:50 PM 66.2 °F 50.0 °F 56% 30.01 in 6.2 mi NW 10.4 mph - N/A   Partly Cloudy
7:20 PM 64.4 °F 51.8 °F 64% 30.01 in 6.2 mi NW 5.8 mph - N/A   Partly Cloudy
7:50 PM 64.4 °F 50.0 °F 59% 30.01 in 6.2 mi NNW 4.6 mph - N/A   Partly Cloudy
8:20 PM 64.4 °F 48.2 °F 56% 30.01 in 6.2 mi North 2.3 mph - N/A   Partly Cloudy
8:50 PM 60.8 °F 50.0 °F 68% 30.01 in 6.2 mi Calm Calm - N/A   Partly Cloudy
9:20 PM 59.0 °F 50.0 °F 72% 30.01 in 6.2 mi NE 3.5 mph - N/A   Partly Cloudy
9:50 PM 56 °F 51 °F 77%  in - East 4.6 mph - -